Wind_Speed
38 35 37 36 34 32 26 22 21 19 33 33 38 29 26 22 27 36 34 26 16 21 15 13 14 12 10 8 7 6 5 4 4 2 1 4 5 7 10 10 11 13 14 15 15 16 15 14 14
40 37 37 40 39 34 25 11 10 28 43 48 47 40 26 31 35 41 37 26 17 22 18 18 16 16 15 13 10 9 7 6 6 4 1 2 4 6 8 9 11 14 14 15 15 15 15 15 16
40 39 39 42 42 38 25 18 25 32 42 47 47 49 39 42 45 43 22 22 20 24 22 20 20 19 18 15 13 11 10 8 8 5 2 2 3 4 7 10 12 13 15 16 16 16 16 17 18
43 43 41 42 42 39 33 16 31 23 35 46 43 48 46 51 46 35 27 27 24 24 23 21 22 21 20 17 16 14 12 11 10 7 5 4 4 4 5 9 11 14 17 16 16 16 17 17 19
44 47 48 47 46 40 45 33 34 39 21 31 43 38 44 48 46 36 32 30 29 27 24 24 25 22 22 21 19 16 16 14 13 9 7 5 4 4 3 5 10 13 15 16 15 15 16 17 18
41 43 50 53 48 45 44 48 43 42 35 16 29 39 35 52 47 37 34 34 34 31 27 29 27 24 24 24 23 18 16 16 15 15 11 7 4 6 4 4 7 11 14 16 16 18 17 17 18
36 41 46 48 48 48 32 40 52 46 49 38 30 29 34 55 54 37 37 37 37 35 30 32 30 30 27 28 27 24 21 19 19 18 14 12 10 9 9 7 5 7 11 14 17 18 20 19 19
36 37 38 46 48 48 35 32 37 50 46 46 40 39 42 55 58 37 42 40 41 41 36 36 34 33 31 30 28 26 23 20 20 19 17 14 14 13 12 10 8 8 10 12 18 20 20 23 26
39 41 38 35 40 45 41 33 43 52 49 41 51 44 42 60 54 45 45 45 44 44 40 39 37 36 34 32 30 28 26 22 22 20 18 17 16 16 15 13 11 11 12 14 16 22 25 24 25
43 42 36 34 36 38 33 34 26 46 57 47 49 50 45 53 61 44 45 47 51 47 45 40 40 40 38 37 35 31 28 26 25 23 23 22 20 20 19 16 14 14 14 16 18 19 25 25 25
43 40 40 38 38 37 37 32 27 41 50 55 49 46 52 54 46 53 53 49 56 58 54 48 45 44 42 43 40 36 34 30 28 26 25 24 24 23 23 20 19 16 17 18 20 22 23 28 26
44 44 44 43 43 43 43 38 39 33 34 57 61 55 43 56 53 48 54 58 54 61 57 56 50 49 47 46 44 44 38 34 31 28 26 26 25 25 26 23 20 20 20 19 20 23 26 32 24
41 43 45 45 46 47 46 48 47 49 44 41 49 57 62 51 58 51 50 54 60 56 61 59 53 52 51 49 46 48 42 39 36 33 30 29 28 28 28 26 24 24 23 21 23 24 24 27 22
39 41 42 44 46 50 50 51 51 46 49 57 41 56 62 58 51 54 50 52 59 54 59 62 60 54 54 54 52 51 49 48 44 40 34 32 32 30 30 31 28 26 26 23 22 25 28 24 32
39 43 43 40 44 45 47 52 50 48 49 49 51 56 60 61 57 52 52 47 54 56 61 61 62 58 56 62 62 57 52 46 46 42 37 36 36 36 35 34 30 30 27 24 25 27 26 23 27
40 42 43 39 42 42 45 52 46 48 51 50 49 47 52 60 58 54 55 51 53 59 64 65 65 64 62 64 68 64 64 50 49 45 45 42 42 40 40 39 35 35 32 28 26 27 21 20 28
39 41 42 40 39 41 43 48 46 48 49 50 49 51 49 59 61 51 62 60 53 61 66 67 70 70 66 71 76 75 58 61 55 54 51 46 49 43 44 41 41 37 33 29 30 21 22 23 28
36 28 26 28 30 32 33 38 43 42 42 45 50 50 49 53 49 48 55 68 56 51 67 71 75 74 72 73 76 73 71 68 62 62 52 53 53 47 46 46 44 43 34 27 26 16 20 24 30
34 36 38 39 28 22 28 39 47 37 37 38 47 47 47 49 42 48 55 70 64 50 62 73 76 76 77 74 77 73 73 69 70 61 57 55 57 56 54 49 50 48 39 33 26 22 24 26 30
36 38 40 46 46 34 38 38 48 43 37 38 43 44 45 41 41 48 56 64 64 54 43 75 76 81 78 82 79 78 72 77 77 70 61 67 57 61 59 49 50 50 43 36 35 27 29 35 27
36 39 39 37 30 27 33 45 50 49 38 38 41 43 41 43 39 44 52 59 64 55 59 52 80 80 88 85 86 81 84 83 72 74 65 70 60 59 61 54 60 43 45 37 39 27 33 29 39
36 33 26 28 29 32 28 40 36 32 30 36 44 46 45 42 41 42 45 54 59 54 53 53 76 83 85 79 91 87 82 78 68 64 75 70 57 53 49 50 41 50 54 35 40 35 27 39 53
35 24 31 29 34 32 39 39 42 32 29 30 37 42 42 43 42 41 41 45 52 51 54 48 47 83 87 87 73 93 90 82 78 71 61 63 67 58 52 50 48 39 34 45 34 32 30 51 53
30 31 37 38 42 40 42 32 39 31 28 25 31 43 44 42 46 43 42 42 46 49 50 47 47 51 74 89 82 71 73 89 79 80 73 62 58 76 54 61 49 40 46 42 54 54 44 50 47
32 32 32 29 32 35 22 36 22 14 22 24 38 46 48 41 43 44 44 44 45 47 47 47 46 45 50 56 92 86 78 52 72 74 72 71 72 72 62 64 34 46 49 48 43 53 43 50 48
40 33 32 28 27 28 26 38 27 21 28 39 41 46 48 36 34 39 39 44 46 47 47 45 46 44 44 51 54 88 74 68 70 55 51 58 69 57 64 57 48 46 49 53 54 40 44 47 48
33 36 22 35 37 36 31 33 31 35 29 37 43 50 48 41 34 36 37 36 38 41 42 43 43 46 47 44 60 75 77 77 73 65 67 58 64 71 48 52 54 53 49 55 53 49 53 49 45
40 41 39 38 33 35 28 27 29 31 26 25 35 34 36 42 39 39 35 35 37 36 37 38 38 41 44 47 50 50 50 48 46 47 58 65 65 59 59 62 65 70 56 55 55 55 54 49 45
28 27 31 38 40 45 36 29 34 32 36 29 33 33 33 38 44 39 39 40 40 39 38 39 39 39 40 41 46 48 52 53 52 54 55 49 51 58 55 63 63 64 60 54 52 50 50 44 40
24 23 32 39 39 40 34 34 18 29 26 30 26 25 35 26 30 39 45 41 42 42 41 41 42 42 44 44 43 45 45 48 51 53 54 52 53 52 49 51 59 63 59 58 48 44 40 37 34
Wind_Direction
229 226 231 230 230 226 226 204 159 242 226 211 209 219 202 209 211 223 229 231 227 236 225 234 233 222 219 214 222 237 262 278 274 255 138 80 54 43 34 38 42 39 35 35 37 37 35 33 28
230 230 232 234 229 225 219 228 230 245 245 224 220 228 229 212 218 220 227 241 224 228 230 235 236 237 231 231 230 244 258 264 266 258 268 32 32 36 31 38 38 25 21 24 29 36 35 34 32
232 235 234 236 231 227 188 206 217 233 243 242 227 238 239 225 224 223 233 245 246 231 229 235 237 237 235 234 238 244 255 261 268 269 285 350 2 23 38 38 33 23 13 19 18 23 30 30 28
234 237 239 237 235 228 193 201 221 213 232 239 231 230 230 235 241 241 244 238 235 229 233 235 241 242 241 240 242 243 249 260 269 281 299 324 347 0 20 41 31 25 17 18 15 15 17 19 16
238 238 239 239 238 234 221 199 244 215 227 241 234 234 240 239 237 233 234 235 239 231 229 230 237 242 250 251 249 246 252 259 267 276 297 296 299 312 349 30 28 33 26 20 16 7 5 2 4
240 239 239 238 243 241 244 222 230 221 216 226 241 233 240 251 235 233 225 229 234 234 231 227 232 242 253 254 256 252 256 263 270 272 276 282 290 292 302 330 15 32 21 15 12 3 356 352 354
243 242 241 241 242 245 261 261 250 240 232 226 224 239 228 246 245 232 228 224 231 234 223 228 235 245 251 253 253 258 261 262 267 269 270 268 271 281 293 299 342 17 14 10 4 357 355 347 348
243 243 241 239 241 243 233 265 271 261 255 254 243 220 221 238 245 230 229 224 223 231 223 230 237 243 251 253 257 255 258 256 259 265 270 272 273 276 284 297 312 335 345 355 1 359 352 350 345
245 244 243 244 242 242 241 233 271 270 262 258 257 252 233 235 242 229 230 224 220 228 228 232 233 237 247 247 258 255 254 253 256 258 267 277 279 281 281 292 302 314 327 336 342 356 353 348 341
247 248 247 244 242 240 239 239 237 271 264 257 256 253 251 261 241 221 227 225 223 225 230 229 231 231 241 246 255 254 254 257 258 261 266 273 279 279 280 288 293 303 312 328 338 339 350 342 334
243 245 250 246 242 244 239 225 235 261 264 259 257 259 257 254 258 236 223 223 219 226 227 224 227 225 232 243 250 253 257 258 257 260 264 269 272 277 278 283 288 298 303 316 326 331 336 342 336
242 241 243 244 247 245 239 231 217 227 253 267 266 261 258 259 254 247 229 227 222 223 228 229 223 228 226 233 240 251 250 253 250 252 257 264 268 268 271 277 283 287 293 301 316 326 335 342 331
242 242 242 241 243 247 249 245 233 224 223 250 258 263 261 256 257 249 244 224 229 224 230 232 228 229 230 231 230 245 247 249 246 246 250 254 258 263 263 272 276 281 286 293 314 321 331 335 327
248 246 246 243 242 244 248 249 244 250 236 230 235 257 262 259 254 254 245 236 224 225 226 230 234 229 229 232 232 238 247 251 243 242 244 250 254 257 258 262 264 273 278 286 301 317 314 332 342
249 251 252 252 253 252 253 251 247 251 248 248 246 249 263 263 259 255 249 245 241 217 222 229 229 226 229 235 224 225 232 236 241 239 237 241 244 250 251 254 257 265 276 285 305 307 321 341 334
255 255 257 253 255 253 253 252 252 250 252 252 255 253 256 263 262 253 248 242 236 220 222 224 226 226 229 232 240 230 220 212 218 226 227 232 237 242 248 252 258 259 266 278 293 294 323 330 322
260 261 261 261 260 259 258 256 252 253 254 253 252 255 254 254 259 253 253 242 238 226 219 224 227 224 229 235 229 235 226 214 214 223 224 228 234 234 246 248 255 261 264 273 280 279 308 311 309
262 264 275 278 269 258 262 258 257 250 249 248 250 254 258 259 262 258 246 253 239 238 222 223 227 226 230 235 242 243 231 231 245 231 220 228 231 230 237 247 248 255 262 267 268 279 302 304 308
257 254 236 233 223 240 247 259 256 255 251 249 251 253 254 261 257 250 246 245 243 236 231 223 229 232 226 235 242 245 240 241 229 227 230 231 232 232 233 236 247 249 254 257 261 283 296 299 299
256 254 255 245 243 233 234 248 260 262 255 252 254 253 253 256 252 244 249 248 242 238 244 224 229 233 233 231 236 243 242 246 243 229 228 232 230 236 233 235 244 248 250 256 262 273 285 300 288
261 264 263 258 253 252 261 258 258 260 260 253 254 258 261 259 252 248 245 252 246 235 240 248 225 231 235 233 233 234 239 240 244 223 235 233 233 236 243 248 249 257 248 244 256 273 286 286 306
270 267 270 275 267 251 242 259 262 267 267 254 245 249 254 259 257 252 248 245 251 244 250 249 230 229 233 239 234 238 238 239 243 247 252 240 238 241 255 271 260 282 254 248 260 269 286 299 299
269 265 247 238 249 250 254 250 259 246 234 252 260 253 253 252 256 255 252 246 250 247 246 251 257 235 235 242 242 235 237 239 240 242 245 242 253 245 264 258 261 276 264 254 269 273 277 301 290
277 259 258 252 251 246 256 257 257 253 251 258 264 262 250 249 250 251 250 246 249 247 246 250 245 253 245 240 243 241 244 243 241 246 243 244 239 252 254 263 258 259 271 269 280 287 288 295 285
261 269 273 268 263 264 265 248 270 260 252 238 238 255 261 255 251 250 248 249 244 246 246 242 245 243 251 255 241 245 252 243 243 246 246 245 250 252 243 252 255 268 274 276 273 282 290 293 293
246 239 254 258 261 272 253 246 242 219 248 225 226 244 256 255 254 250 250 247 248 249 247 246 247 245 249 244 248 245 242 257 245 237 236 241 245 256 247 257 259 262 265 268 277 274 284 286 290
269 246 254 254 258 256 247 231 234 215 224 247 246 252 263 264 256 248 250 251 249 250 252 250 247 246 245 243 245 246 249 252 252 252 255 258 247 248 249 256 255 260 260 269 271 274 281 279 286
265 261 243 251 262 250 252 252 255 254 245 215 248 253 254 255 255 249 249 249 248 247 249 251 250 249 247 246 246 247 248 248 250 253 256 256 250 250 249 255 260 261 266 264 272 279 277 278 283
284 276 264 263 259 266 264 243 250 262 264 253 242 250 247 249 248 254 250 248 249 248 246 248 251 252 250 247 249 249 250 251 250 251 251 253 255 252 255 252 253 258 261 267 272 270 275 273 279
253 264 256 246 246 253 259 245 236 250 265 253 213 220 244 257 256 256 253 249 249 250 248 247 247 248 251 251 247 249 251 250 251 249 250 251 252 251 246 252 250 251 258 265 263 267 270 273 272
Height
5860 5860 5864 5867 5872 5873 5878 5884 5889 5896 5893 5892 5887 5890 5899 5897 5892 5887 5884 5893 5902 5900 5903 5904 5904 5903 5904 5905 5906 5906 5907 5907 5906 5905 5904 5902 5902 5900 5899 5898 5898 5896 5896 5895 5894 5892 5891 5889 5889
5855 5856 5860 5860 5866 5868 5878 5886 5890 5889 5877 5883 5885 5888 5895 5891 5887 5884 5890 5894 5901 5898 5901 5902 5902 5902 5903 5904 5904 5905 5905 5905 5905 5904 5903 5902 5901 5900 5899 5898 5897 5897 5896 5895 5893 5891 5891 5890 5888
5851 5851 5853 5854 5859 5864 5874 5876 5878 5872 5871 5875 5885 5887 5888 5877 5878 5882 5896 5896 5899 5897 5898 5900 5901 5901 5901 5901 5903 5904 5904 5903 5903 5903 5902 5902 5901 5900 5899 5898 5897 5896 5895 5894 5893 5892 5891 5889 5888
5843 5847 5848 5848 5853 5862 5866 5866 5867 5863 5862 5864 5875 5874 5878 5873 5878 5889 5894 5894 5893 5896 5897 5898 5899 5899 5899 5899 5900 5901 5902 5902 5902 5902 5902 5901 5901 5901 5900 5898 5897 5896 5895 5894 5893 5892 5891 5890 5888
5836 5839 5840 5841 5846 5854 5854 5854 5849 5858 5858 5860 5867 5873 5869 5869 5873 5884 5888 5891 5890 5892 5894 5895 5896 5897 5898 5898 5898 5899 5900 5900 5900 5900 5900 5900 5900 5900 5899 5898 5896 5894 5894 5894 5893 5893 5891 5889 5888
5828 5831 5832 5836 5840 5845 5846 5843 5843 5851 5852 5857 5862 5865 5868 5856 5868 5879 5883 5885 5886 5887 5891 5892 5893 5894 5895 5896 5897 5897 5898 5898 5898 5898 5899 5899 5898 5899 5898 5897 5896 5894 5893 5893 5893 5893 5892 5890 5888
5821 5823 5826 5830 5834 5838 5841 5840 5838 5845 5847 5849 5853 5860 5863 5844 5855 5872 5877 5879 5880 5880 5888 5888 5889 5891 5892 5893 5893 5894 5895 5896 5896 5896 5896 5897 5897 5897 5897 5896 5894 5892 5891 5892 5892 5891 5890 5889 5887
5814 5815 5818 5822 5826 5831 5837 5832 5833 5832 5840 5841 5841 5847 5851 5841 5845 5867 5866 5873 5874 5873 5881 5882 5884 5886 5888 5889 5890 5890 5892 5892 5893 5894 5894 5894 5894 5894 5895 5894 5893 5891 5890 5890 5890 5890 5888 5887 5886
5806 5807 5811 5817 5820 5825 5829 5832 5825 5824 5830 5833 5833 5840 5841 5834 5836 5858 5856 5866 5868 5867 5874 5877 5879 5882 5883 5885 5886 5886 5887 5889 5890 5890 5891 5892 5891 5892 5892 5892 5891 5890 5889 5888 5888 5888 5888 5886 5885
5797 5799 5807 5812 5813 5815 5819 5823 5829 5817 5818 5826 5826 5831 5833 5829 5833 5845 5849 5856 5862 5862 5863 5872 5873 5876 5878 5880 5881 5882 5883 5885 5887 5888 5888 5888 5889 5889 5889 5889 5888 5888 5887 5886 5886 5885 5885 5884 5883
5792 5797 5799 5802 5805 5807 5809 5812 5821 5815 5811 5811 5819 5820 5823 5823 5832 5836 5838 5841 5850 5853 5853 5861 5865 5869 5872 5874 5876 5877 5880 5881 5882 5884 5885 5884 5885 5886 5885 5885 5885 5885 5885 5884 5883 5883 5883 5881 5881
5784 5789 5791 5794 5795 5796 5797 5802 5805 5811 5814 5803 5804 5810 5812 5812 5819 5824 5831 5832 5839 5846 5847 5848 5857 5861 5864 5866 5870 5872 5874 5876 5877 5879 5879 5880 5881 5881 5882 5882 5881 5882 5881 5881 5880 5880 5879 5878 5878
5777 5780 5782 5786 5786 5786 5787 5789 5791 5796 5803 5802 5799 5796 5799 5807 5805 5814 5820 5824 5829 5838 5841 5844 5850 5854 5858 5860 5863 5864 5867 5870 5872 5873 5875 5875 5876 5877 5878 5878 5878 5879 5878 5878 5876 5877 5880 5879 5878
5767 5768 5771 5774 5776 5776 5777 5778 5781 5791 5792 5792 5795 5788 5783 5794 5798 5799 5808 5815 5817 5832 5832 5837 5839 5848 5852 5852 5854 5857 5858 5862 5864 5866 5869 5870 5871 5872 5873 5874 5873 5874 5874 5875 5875 5875 5874 5874 5873
5759 5758 5761 5765 5767 5767 5768 5766 5773 5781 5780 5780 5785 5783 5779 5780 5789 5789 5797 5802 5809 5820 5823 5827 5831 5840 5843 5839 5838 5844 5851 5854 5858 5860 5862 5863 5864 5866 5867 5868 5868 5868 5868 5870 5869 5869 5870 5870 5869
5750 5751 5751 5760 5757 5760 5757 5756 5767 5767 5764 5769 5771 5776 5775 5771 5774 5780 5782 5789 5797 5805 5812 5817 5821 5827 5830 5831 5829 5831 5835 5838 5845 5850 5853 5855 5857 5860 5862 5862 5862 5863 5864 5865 5865 5865 5866 5865 5865
5742 5742 5743 5748 5749 5749 5746 5748 5754 5754 5753 5757 5760 5760 5764 5761 5761 5772 5766 5776 5785 5793 5801 5804 5809 5815 5819 5819 5815 5822 5824 5827 5831 5837 5844 5847 5850 5853 5854 5857 5856 5858 5859 5861 5862 5861 5861 5861 5860
5734 5736 5737 5738 5741 5740 5738 5736 5739 5742 5743 5747 5748 5749 5751 5751 5756 5760 5760 5754 5775 5784 5788 5792 5794 5801 5807 5809 5811 5814 5818 5821 5825 5828 5834 5838 5843 5845 5846 5849 5850 5850 5853 5855 5856 5855 5853 5855 5856
5724 5725 5725 5727 5729 5727 5731 5726 5728 5731 5733 5737 5736 5738 5741 5742 5747 5744 5748 5745 5759 5771 5775 5777 5782 5784 5795 5798 5800 5805 5811 5813 5816 5819 5824 5828 5833 5835 5836 5839 5841 5844 5846 5848 5849 5846 5846 5847 5848
5715 5713 5714 5715 5717 5717 5718 5717 5717 5719 5724 5725 5725 5727 5730 5732 5734 5734 5733 5736 5745 5758 5760 5764 5768 5772 5776 5785 5788 5791 5796 5801 5806 5807 5812 5816 5819 5822 5826 5829 5831 5836 5839 5840 5841 5841 5842 5843 5840
5706 5705 5706 5705 5706 5708 5709 5705 5704 5709 5713 5716 5717 5718 5718 5719 5722 5725 5726 5723 5731 5746 5748 5746 5753 5758 5762 5767 5771 5774 5780 5788 5793 5794 5800 5804 5808 5815 5821 5824 5828 5825 5828 5831 5835 5835 5835 5835 5835
5696 5698 5698 5697 5697 5696 5702 5695 5698 5701 5702 5703 5706 5708 5710 5711 5711 5713 5716 5718 5717 5730 5731 5736 5739 5745 5750 5752 5759 5765 5769 5776 5784 5788 5791 5792 5800 5804 5810 5814 5817 5818 5818 5824 5828 5829 5828 5826 5826
5689 5689 5687 5687 5686 5686 5687 5686 5689 5693 5694 5695 5694 5697 5701 5702 5703 5703 5705 5709 5708 5714 5721 5723 5728 5729 5732 5738 5744 5752 5758 5761 5769 5776 5780 5784 5790 5795 5800 5804 5807 5810 5814 5818 5821 5824 5822 5821 5819
5681 5680 5677 5677 5676 5673 5679 5680 5678 5682 5685 5688 5687 5684 5688 5691 5691 5694 5696 5699 5700 5703 5707 5712 5714 5718 5721 5724 5730 5739 5744 5752 5757 5765 5772 5776 5778 5785 5787 5795 5795 5801 5808 5812 5813 5815 5814 5814 5808
5673 5672 5669 5669 5668 5665 5672 5665 5672 5678 5679 5680 5676 5675 5675 5679 5681 5683 5685 5688 5690 5692 5697 5702 5703 5707 5712 5713 5716 5722 5731 5736 5744 5752 5756 5763 5767 5775 5777 5784 5784 5791 5796 5802 5804 5805 5805 5805 5804
5663 5662 5661 5659 5660 5662 5663 5657 5665 5660 5664 5672 5668 5668 5667 5671 5672 5673 5675 5676 5679 5682 5687 5690 5693 5699 5699 5703 5708 5714 5719 5724 5733 5739 5744 5748 5757 5762 5766 5770 5776 5783 5787 5793 5794 5795 5798 5800 5798
5653 5652 5653 5650 5649 5650 5653 5653 5653 5658 5657 5661 5663 5661 5661 5663 5665 5664 5666 5669 5670 5672 5675 5678 5682 5685 5689 5693 5698 5703 5706 5710 5716 5719 5727 5738 5744 5751 5752 5758 5759 5772 5777 5781 5783 5787 5791 5791 5791
5641 5645 5644 5638 5638 5638 5644 5648 5648 5647 5646 5650 5651 5653 5654 5653 5656 5656 5658 5660 5661 5664 5666 5668 5671 5674 5678 5682 5686 5691 5696 5701 5705 5710 5716 5723 5731 5735 5743 5750 5753 5758 5768 5772 5774 5778 5781 5781 5782
5635 5632 5635 5632 5633 5632 5636 5640 5638 5640 5639 5644 5642 5643 5645 5645 5644 5648 5649 5650 5652 5655 5658 5660 5662 5665 5668 5672 5675 5679 5684 5688 5693 5699 5705 5708 5714 5722 5728 5735 5742 5747 5756 5762 5766 5769 5770 5770 5771
5627 5628 5624 5622 5626 5624 5627 5629 5634 5634 5631 5632 5633 5636 5636 5638 5639 5638 5639 5642 5642 5644 5648 5651 5653 5656 5657 5661 5665 5669 5674 5678 5683 5688 5692 5697 5703 5709 5716 5723 5728 5738 5744 5750 5755 5757 5758 5759 5761